Tracking 35237 objects as of 6-Sep-2026
HD Live streaming from Space Station
objects crossing your sky now

NOAA 17 DEB


NOAA 17 DEB is no longer on orbit


NORAD ID: 48727
Int'l Code: 2002-032BM
Launch date: June 24, 2002
Source: United States (US)
Launch site: AIR FORCE WESTERN TEST RANGE (AFWTR)
Decay date: 2024-11-05

Note: This is SATELLITE DEBRIS
Your satellite tracking list
Your tracking list is empty




NASA's NSSDC Master Catalog

Two Line Element Set (TLE):
1 48727U 02032BL  24282.39200533  .01155869  00000-0  15084+0 0  9990
2 48727  98.7346 266.0131 0023448  34.2102 326.0611 14.77197070182675
Source of the keplerian elements: AFSPC